Location: Ashtead
(51.3000°N, 0.3000°W)
Time: 19:28:10
(UTC+00:00)

SL-08 R/B - Pass Details

Date: 26 September 2023
Orbit: 670 x 736 km, 98.5° (Epoch: 09 December)

Event Time Altitude Azimuth Distance (km) Brightness Sun altitude
Rises 05:05:31 0° 165° (SSE) 3,056 6.7 -8.2°
Reaches altitude 10° 05:07:44 10° 167° (SSE) 2,154 5.9 -7.9°
Maximum altitude 05:12:27 82° 255° (WSW) 721 3.3 -7.2°
Drops below altitude 10° 05:17:20 10° 344° (NNW) 2,213 5.8 -6.4°
Sets 05:19:38 0° 345° (NNW) 3,148 6.6 -6.1°
